Content
SEND FEEDBACK

Daily
Averages
Monthly
Summary
United States of America

MAURICEVILLE, TEXAS


Home > North America > United States > Texas
Elevation: 6 meters     Latitude: 30 14N     Longitude: 093 44W

WEATHER
 
SELECT A DAY
Number of Records: 107,284;   Date Range: 8/25/05 - 7/6/14
 
SHARE

PRINT THIS DATA

[ ← Previous Day ]
WEATHER ALMANAC - 19 JUNE, 2013
[ Next Day → ]
[ °F ]   °C
Weather ElementAverageHighLow
Temperature25.3 °C31 °C (2:15 pm) (3:35 pm)
Dewpoint22.7 °C24.5 °C (10:35 am) (7:00 pm)
Humidity85.7 %96 % (12:55 am)59 % (12:35 pm)
Barometer1015.6 hPa1016.6 hPa (8:55 am)1014.2 hPa (3:15 am)
Wind Speed2.1 km/h11.1 km/h (12:55 pm)
Weather ElementAverage
Visibility15.3 km
Wind DirectionNNE (39.3 °)

Weather ElementTotal
Precipitation22.1 mm
Heating Degree Days11.7 (Base 18.3)
Averaged from 71 records on 19 June, 2013
WEATHER CONDITIONS BREAKOUT
WIND DIRECTION BREAKOUT
WEATHER BY HOUR - 19 JUNE, 2013
[ °F ]   °C
Local TimeTemperatureDewpointHumidityBarometerVisibilityWind DirectionWind SpeedGust SpeedPrecipitationEventsConditions
12:35 AM22.3 °C21.5 °C95 %1015.2 hPa11.3 kmCalmClear
12:55 AM22.3 °C21.7 °C96 %1015.2 hPa11.3 kmCalmClear
1:15 AM22.9 °C22.2 °C96 %1015.2 hPa16.1 kmCalmClear
1:35 AM23 °C22.2 °C95 %1014.9 hPa16.1 kmCalmScattered Clouds
1:55 AM23.9 °C22.5 °C92 %1014.9 hPa16.1 kmCalmScattered Clouds
2:15 AM24 °C22.5 °C91 %1014.9 hPa16.1 kmCalmScattered Clouds
2:35 AM23.1 °C22.2 °C95 %1014.6 hPa16.1 kmCalmScattered Clouds
2:55 AM23.2 °C22.5 °C96 %1014.6 hPa16.1 kmCalmMostly Cloudy
3:15 AM23.5 °C22.9 °C96 %1014.2 hPa16.1 kmCalmOvercast
3:35 AM23.5 °C22.6 °C95 %1014.2 hPa16.1 kmCalmMostly Cloudy
3:55 AM24.1 °C23 °C94 %1014.2 hPa16.1 kmCalmOvercast
4:15 AM24.2 °C22.7 °C91 %1014.2 hPa16.1 kmCalmOvercast
4:35 AM23.5 °C22.5 °C94 %1014.2 hPa16.1 kmCalmOvercast
4:55 AM23.5 °C22.8 °C96 %1014.6 hPa16.1 kmCalmOvercast
5:15 AM23.9 °C23 °C95 %1014.6 hPa16.1 kmCalmOvercast
5:35 AM24.3 °C23.4 °C95 %1014.9 hPa16.1 kmCalmOvercast
5:55 AM25 °C23.4 °C91 %1014.9 hPa16.1 kmCalmOvercast
6:15 AM24.3 °C23.3 °C94 %1014.9 hPa16.1 kmCalmOvercast
6:35 AM24 °C23.2 °C95 %1015.2 hPa11.3 kmCalmOvercast
6:55 AM23.9 °C23.1 °C95 %1015.6 hPa11.3 kmCalmOvercast
7:15 AM24 °C23.2 °C95 %1015.9 hPa11.3 kmCalmOvercast
7:35 AM24 °C23.2 °C95 %1015.9 hPa16.1 kmCalmMostly Cloudy
7:55 AM24.4 °C23.5 °C95 %1016.3 hPa16.1 kmCalmMostly Cloudy
8:15 AM24.7 °C23.5 °C93 %1016.3 hPa16.1 kmCalmOvercast
8:35 AM25 °C23.6 °C92 %1016.3 hPa16.1 kmCalmMostly Cloudy
8:55 AM25.8 °C24 °C90 %1016.6 hPa16.1 kmCalmScattered Clouds
9:15 AM26.5 °C24 °C86 %1016.3 hPa16.1 kmCalmScattered Clouds
9:35 AM27.4 °C24.2 °C83 %1016.6 hPa16.1 kmCalmClear
9:55 AM27.9 °C24.4 °C81 %1016.6 hPa16.1 kmCalmScattered Clouds
10:15 AM27.5 °C24.3 °C83 %1016.3 hPa16.1 kmWNW (290°)7.4 km/hOvercast
10:35 AM27.2 °C24.5 °C85 %1016.3 hPa16.1 kmCalmMostly Cloudy
10:55 AM27.6 °C23.7 °C79 %1016.6 hPa16.1 kmESE (110°)5.6 km/hScattered Clouds
11:15 AM27.7 °C23.9 °C80 %1016.3 hPa16.1 kmENE (70°)5.6 km/hScattered Clouds
11:35 AM28.8 °C24.2 °C76 %1016.6 hPa16.1 kmNE (50°)7.4 km/hScattered Clouds
11:55 AM29.6 °C23.8 °C71 %1016.3 hPa16.1 kmCalmMostly Cloudy
12:15 PM29.7 °C22.5 °C65 %1016.3 hPa16.1 kmCalmScattered Clouds
12:35 PM29.9 °C21 °C59 %1015.9 hPa16.1 kmCalmClear
12:55 PM28.5 °C23.1 °C72 %1016.6 hPa16.1 kmNW (320°)11.1 km/hThunderstormThunderstorm
1:15 PM29.3 °C23.4 °C70 %1016.3 hPa16.1 kmNorth (360°)9.3 km/hClear
1:35 PM30.1 °C24.1 °C70 %1015.9 hPa16.1 kmNorth (360°)7.4 km/hClear
1:55 PM30.4 °C23.6 °C67 %1015.6 hPa16.1 kmNorth (10°)9.3 km/hClear
2:15 PM31 °C23.7 °C65 %1015.9 hPa16.1 kmNNE (20°)11.1 km/hThunderstormScattered Clouds
2:35 PM25.6 °C21.5 °C78 %1016.3 hPa2.9 kmWSW (240°)11.1 km/h5.33 mmRain-ThunderstormHeavy Thunderstorms and Rain
2:55 PM23.9 °C22.4 °C91 %1016.3 hPa1.6 kmSouth (180°)7.4 km/h16.26 mmRain-ThunderstormHeavy Thunderstorms and Rain
3:15 PM24.6 °C22.8 °C90 %1016.6 hPa16.1 kmCalm0.25 mmRain-ThunderstormLight Thunderstorms and Rain
3:35 PM-17.8 °C-17.8 °C1016.6 hPa16.1 kmNorthThunderstorm
3:55 PM26.1 °C23.1 °C83 %1016.3 hPa16.1 kmCalm0.25 mmThunderstormMostly Cloudy
4:15 PM26.2 °C23.5 °C85 %1015.9 hPa16.1 kmCalmScattered Clouds
4:35 PM26.8 °C23.1 °C80 %1015.9 hPa16.1 kmEast (80°)5.6 km/hClear
4:55 PM26.6 °C23.9 °C85 %1015.9 hPa16.1 kmCalmClear
5:15 PM26.8 °C23.8 °C84 %1015.9 hPa16.1 kmCalmClear
5:35 PM27.4 °C23.1 °C77 %1015.2 hPa16.1 kmEast (100°)5.6 km/hClear
5:55 PM28.5 °C23.3 °C73 %1015.6 hPa16.1 kmEast (80°)5.6 km/hClear
6:15 PM28.5 °C22.7 °C71 %1015.6 hPa16.1 kmENE (70°)9.3 km/hClear
6:35 PM27.6 °C23.1 °C76 %1015.2 hPa16.1 kmEast (90°)9.3 km/hClear
6:55 PM27.1 °C22.7 °C77 %1015.6 hPa16.1 kmCalmClear
7:15 PM26.8 °C22.7 °C78 %1015.6 hPa16.1 kmEast (90°)5.6 km/hClear
7:35 PM26.7 °C22.8 °C79 %1015.9 hPa16.1 kmCalmClear
7:55 PM26.5 °C23.1 °C81 %1015.6 hPa16.1 kmCalmClear
8:15 PM26.7 °C23.5 °C82 %1015.6 hPa16.1 kmCalmClear
8:35 PM26.6 °C23.7 °C84 %1015.9 hPa16.1 kmCalmClear
8:55 PM26.5 °C23.7 °C84 %1015.6 hPa16.1 kmSE (130°)5.6 km/hClear
9:15 PM26.4 °C24 °C87 %1015.9 hPa16.1 kmCalmClear
9:35 PM26.2 °C24 °C88 %1015.9 hPa16.1 kmCalmClear
9:55 PM26.1 °C24.1 °C89 %1016.3 hPa16.1 kmCalmClear
10:15 PM26.1 °C24.2 °C89 %1016.3 hPa16.1 kmSE (140°)5.6 km/hClear
10:35 PM26 °C24.3 °C90 %1016.3 hPa16.1 kmCalmClear
10:55 PM25.4 °C24 °C92 %1016.6 hPa16.1 kmCalmClear
11:15 PM25.1 °C24.1 °C94 %1016.6 hPa16.1 kmCalmClear
11:35 PM24.7 °C23.9 °C95 %1016.3 hPa8 kmCalmClear
11:55 PM24.7 °C24 °C96 %1016.6 hPa16.1 kmCalmClear
Hourly data recorded from KORG, located 0 kilometers away from Mauriceville, Texas







STORIES FROM OUR PARTNERS